Total_Precipitation_Accumulation
0.27 0.23 0.19 0.20 0.37 0.71 1.38 0.99 0.31 0.22 0.27 0.24 0.28 0.31 0.39 0.56 0.57 0.38 0.17 0.04 0.41 0.61 0.15 0.03 0.01 0.03 0.02 0.02 0.02 0.01 0.05 0.03 0.03 0.08 0.07 0.02 0.00 0.00 0.01 0.03 0.01 0.02 0.03 0.05 0.07 0.15 0.10 0.01 0.05 0.09 0.06 0.00 0.00 0.00
0.36 0.28 0.20 0.20 0.43 0.71 0.99 1.18 0.49 0.28 0.28 0.25 0.27 0.33 0.52 0.56 0.57 0.48 0.36 0.06 0.12 0.42 0.33 0.06 0.01 0.00 0.01 0.02 0.03 0.03 0.03 0.01 0.03 0.03 0.01 0.01 0.01 0.01 0.02 0.05 0.05 0.07 0.02 0.04 0.03 0.04 0.01 0.02 0.05 0.04 0.02 0.01 0.01 0.00
0.35 0.26 0.19 0.23 0.52 0.75 0.95 1.08 0.63 0.36 0.27 0.22 0.20 0.31 0.41 0.48 0.54 0.54 0.42 0.18 0.23 0.34 0.33 0.12 0.05 0.01 0.01 0.01 0.03 0.07 0.05 0.03 0.03 0.08 0.18 0.14 0.07 0.02 0.02 0.04 0.10 0.11 0.02 0.03 0.06 0.03 0.01 0.05 0.09 0.09 0.06 0.05 0.02 0.01
0.24 0.19 0.23 0.37 0.63 0.75 0.89 0.88 0.63 0.47 0.30 0.26 0.17 0.17 0.30 0.42 0.49 0.51 0.58 0.25 0.19 0.27 0.31 0.20 0.03 0.02 0.01 0.00 0.01 0.00 0.01 0.02 0.03 0.05 0.13 0.13 0.07 0.04 0.04 0.04 0.03 0.05 0.07 0.06 0.06 0.03 0.03 0.07 0.09 0.10 0.08 0.05 0.03 0.02
0.18 0.30 0.36 0.45 0.65 0.79 0.80 0.86 0.58 0.42 0.34 0.28 0.18 0.20 0.29 0.42 0.43 0.61 0.66 0.28 0.14 0.15 0.25 0.17 0.03 0.04 0.03 0.01 0.00 0.00 0.01 0.04 0.08 0.13 0.14 0.07 0.03 0.04 0.04 0.04 0.02 0.00 0.01 0.05 0.06 0.01 0.03 0.05 0.08 0.09 0.07 0.06 0.03 0.03
0.28 0.32 0.31 0.51 0.73 0.74 0.71 0.80 0.57 0.53 0.47 0.31 0.20 0.22 0.32 0.41 0.52 0.85 1.35 0.65 0.18 0.24 0.27 0.30 0.16 0.03 0.05 0.04 0.02 0.01 0.01 0.04 0.14 0.17 0.11 0.05 0.02 0.07 0.12 0.03 0.00 0.00 0.00 0.00 0.01 0.01 0.02 0.04 0.06 0.06 0.05 0.03 0.01 0.01
0.22 0.26 0.40 0.61 0.73 0.70 0.80 0.74 0.63 0.61 0.46 0.35 0.25 0.22 0.28 0.38 0.53 0.72 0.76 0.49 0.16 0.26 0.41 0.26 0.16 0.08 0.03 0.05 0.07 0.03 0.01 0.04 0.09 0.13 0.10 0.03 0.02 0.08 0.11 0.01 0.00 0.00 0.00 0.00 0.00 0.01 0.04 0.04 0.04 0.01 0.00 0.00 0.00 0.00
0.28 0.40 0.52 0.57 0.51 0.80 0.91 0.73 0.78 0.62 0.37 0.25 0.24 0.26 0.36 0.47 0.51 0.49 0.19 0.08 0.08 0.26 0.33 0.33 0.24 0.14 0.11 0.08 0.12 0.07 0.06 0.07 0.11 0.11 0.07 0.03 0.03 0.10 0.11 0.00 0.00 0.00 0.00 0.00 0.00 0.00 0.00 0.00 0.00 0.00 0.00 0.00 0.00 0.00
0.42 0.46 0.41 0.40 0.69 0.86 0.66 0.79 0.89 0.51 0.34 0.27 0.39 0.50 0.66 0.78 0.74 0.53 0.17 0.24 0.14 0.22 0.26 0.17 0.18 0.12 0.08 0.07 0.05 0.13 0.17 0.21 0.10 0.09 0.03 0.03 0.05 0.04 0.01 0.00 0.00 0.00 0.00 0.00 0.00 0.00 0.00 0.00 0.00 0.00 0.01 0.00 0.00 0.00
0.23 0.28 0.45 0.82 0.97 0.75 0.61 0.59 0.56 0.38 0.30 0.43 0.71 1.04 1.34 0.68 0.24 0.44 0.79 1.26 0.92 0.34 0.16 0.04 0.01 0.04 0.06 0.07 0.09 0.10 0.14 0.11 0.13 0.04 0.03 0.07 0.03 0.00 0.00 0.00 0.00 0.00 0.00 0.00 0.00 0.00 0.00 0.00 0.00 0.00 0.00 0.00 0.00 0.00
0.32 0.40 0.54 0.61 0.59 0.50 0.44 0.38 0.31 0.33 0.54 1.05 1.33 0.80 0.47 0.20 0.32 0.68 1.02 1.12 0.69 0.43 0.15 0.03 0.00 0.01 0.02 0.09 0.08 0.09 0.15 0.12 0.07 0.02 0.04 0.03 0.01 0.00 0.00 0.00 0.00 0.00 0.00 0.00 0.00 0.00 0.00 0.00 0.00 0.00 0.00 0.00 0.00 0.00
0.58 0.55 0.52 0.45 0.33 0.24 0.20 0.23 0.27 0.58 0.86 0.64 0.35 0.37 0.29 0.31 0.42 0.42 0.36 0.34 0.27 0.10 0.06 0.02 0.01 0.01 0.03 0.10 0.15 0.15 0.10 0.09 0.10 0.03 0.06 0.02 0.02 0.00 0.00 0.00 0.00 0.00 0.00 0.00 0.00 0.00 0.00 0.00 0.00 0.00 0.00 0.00 0.00 0.00
0.41 0.35 0.25 0.19 0.19 0.18 0.17 0.21 0.26 0.25 0.11 0.09 0.12 0.19 0.19 0.21 0.17 0.16 0.11 0.08 0.16 0.03 0.01 0.01 0.02 0.03 0.02 0.03 0.13 0.24 0.21 0.11 0.02 0.02 0.02 0.02 0.00 0.00 0.00 0.00 0.00 0.00 0.00 0.00 0.00 0.00 0.00 0.00 0.00 0.00 0.00 0.00 0.00 0.00
0.16 0.14 0.16 0.21 0.30 0.26 0.20 0.17 0.07 0.05 0.02 0.05 0.13 0.09 0.06 0.05 0.04 0.03 0.00 0.00 0.00 0.01 0.01 0.01 0.01 0.02 0.02 0.02 0.04 0.06 0.07 0.05 0.05 0.02 0.03 0.01 0.00 0.00 0.00 0.00 0.00 0.00 0.00 0.00 0.00 0.00 0.00 0.00 0.00 0.00 0.00 0.00 0.00 0.00
0.07 0.09 0.20 0.25 0.18 0.11 0.06 0.02 0.01 0.00 0.02 0.04 0.07 0.02 0.03 0.04 0.03 0.01 0.01 0.01 0.02 0.01 0.00 0.01 0.05 0.04 0.04 0.04 0.01 0.02 0.01 0.01 0.00 0.02 0.02 0.00 0.00 0.00 0.00 0.00 0.00 0.00 0.00 0.00 0.00 0.00 0.00 0.00 0.00 0.00 0.00 0.00 0.00 0.00
0.03 0.06 0.06 0.04 0.04 0.03 0.01 0.01 0.02 0.03 0.05 0.04 0.06 0.08 0.08 0.06 0.07 0.05 0.02 0.02 0.02 0.01 0.01 0.02 0.07 0.06 0.05 0.02 0.00 0.00 0.00 0.01 0.01 0.00 0.00 0.00 0.00 0.00 0.00 0.00 0.00 0.00 0.00 0.00 0.00 0.00 0.00 0.00 0.00 0.00 0.00 0.00 0.00 0.00
0.01 0.02 0.02 0.01 0.01 0.02 0.02 0.03 0.05 0.05 0.12 0.10 0.12 0.10 0.10 0.10 0.13 0.07 0.02 0.01 0.01 0.01 0.00 0.01 0.02 0.01 0.00 0.00 0.00 0.00 0.01 0.01 0.00 0.00 0.00 0.00 0.00 0.00 0.00 0.00 0.00 0.00 0.00 0.00 0.00 0.00 0.00 0.00 0.00 0.00 0.00 0.00 0.00 0.00
0.00 0.01 0.01 0.01 0.02 0.04 0.04 0.03 0.06 0.05 0.14 0.21 0.25 0.17 0.10 0.14 0.09 0.03 0.00 0.01 0.02 0.00 0.00 0.00 0.00 0.00 0.00 0.01 0.01 0.01 0.01 0.01 0.01 0.01 0.01 0.00 0.00 0.00 0.00 0.00 0.00 0.00 0.00 0.00 0.00 0.00 0.00 0.00 0.00 0.00 0.00 0.00 0.00 0.00
0.00 0.00 0.00 0.00 0.01 0.02 0.05 0.05 0.07 0.14 0.16 0.21 0.27 0.18 0.13 0.15 0.04 0.01 0.00 0.01 0.01 0.01 0.01 0.01 0.01 0.01 0.02 0.01 0.00 0.00 0.00 0.00 0.02 0.02 0.02 0.01 0.00 0.00 0.00 0.00 0.00 0.00 0.00 0.00 0.00 0.00 0.00 0.00 0.00 0.00 0.00 0.00 0.00 0.00
0.00 0.00 0.00 0.00 0.00 0.01 0.06 0.12 0.05 0.10 0.18 0.28 0.24 0.11 0.10 0.13 0.06 0.02 0.03 0.03 0.06 0.08 0.06 0.03 0.03 0.01 0.00 0.00 0.00 0.00 0.00 0.00 0.01 0.03 0.05 0.04 0.01 0.00 0.00 0.00 0.00 0.00 0.00 0.00 0.00 0.01 0.00 0.00 0.00 0.00 0.00 0.00 0.01 0.01
0.00 0.00 0.00 0.00 0.01 0.02 0.08 0.10 0.09 0.08 0.19 0.33 0.24 0.08 0.12 0.07 0.10 0.11 0.16 0.13 0.12 0.11 0.06 0.03 0.02 0.01 0.00 0.00 0.00 0.00 0.00 0.00 0.01 0.01 0.01 0.03 0.01 0.00 0.00 0.00 0.00 0.00 0.00 0.00 0.00 0.01 0.01 0.00 0.00 0.00 0.01 0.01 0.01 0.01
0.00 0.00 0.01 0.02 0.03 0.02 0.03 0.04 0.05 0.03 0.09 0.18 0.10 0.06 0.10 0.11 0.10 0.07 0.08 0.06 0.09 0.08 0.02 0.01 0.00 0.00 0.00 0.00 0.00 0.00 0.00 0.00 0.00 0.01 0.00 0.00 0.01 0.01 0.01 0.00 0.00 0.00 0.00 0.01 0.01 0.01 0.01 0.01 0.00 0.00 0.02 0.01 0.01 0.02
0.00 0.00 0.01 0.01 0.01 0.01 0.02 0.02 0.04 0.03 0.10 0.07 0.04 0.04 0.05 0.05 0.05 0.01 0.03 0.04 0.10 0.08 0.00 0.00 0.00 0.00 0.00 0.00 0.00 0.00 0.00 0.00 0.00 0.00 0.00 0.00 0.00 0.01 0.01 0.01 0.00 0.01 0.01 0.00 0.00 0.01 0.03 0.01 0.01 0.01 0.01 0.01 0.02 0.02
0.00 0.00 0.00 0.00 0.00 0.00 0.00 0.00 0.01 0.01 0.03 0.01 0.01 0.03 0.02 0.01 0.00 0.00 0.02 0.04 0.09 0.10 0.01 0.00 0.00 0.00 0.00 0.00 0.00 0.00 0.00 0.00 0.00 0.01 0.01 0.00 0.01 0.03 0.01 0.00 0.00 0.01 0.00 0.00 0.01 0.02 0.01 0.02 0.01 0.01 0.02 0.02 0.02 0.02
0.00 0.00 0.00 0.00 0.00 0.00 0.00 0.00 0.00 0.00 0.02 0.02 0.01 0.01 0.01 0.00 0.00 0.01 0.02 0.06 0.05 0.06 0.05 0.01 0.00 0.00 0.00 0.00 0.00 0.00 0.00 0.00 0.00 0.01 0.03 0.00 0.01 0.03 0.04 0.03 0.03 0.03 0.01 0.01 0.03 0.02 0.03 0.03 0.04 0.04 0.03 0.03 0.03 0.03
0.00 0.00 0.00 0.00 0.00 0.00 0.00 0.00 0.00 0.01 0.01 0.01 0.01 0.00 0.00 0.00 0.00 0.02 0.03 0.05 0.04 0.05 0.07 0.05 0.02 0.00 0.00 0.00 0.00 0.00 0.00 0.00 0.00 0.00 0.03 0.02 0.00 0.00 0.01 0.02 0.03 0.06 0.04 0.01 0.01 0.02 0.03 0.03 0.03 0.03 0.04 0.04 0.03 0.02
0.00 0.00 0.00 0.00 0.00 0.00 0.01 0.00 0.00 0.00 0.01 0.03 0.02 0.00 0.00 0.01 0.02 0.03 0.03 0.04 0.04 0.04 0.05 0.06 0.04 0.01 0.00 0.00 0.00 0.00 0.00 0.00 0.00 0.00 0.02 0.02 0.01 0.01 0.01 0.01 0.01 0.01 0.02 0.02 0.02 0.01 0.01 0.02 0.02 0.02 0.02 0.03 0.03 0.02
0.00 0.00 0.00 0.00 0.00 0.00 0.01 0.01 0.01 0.02 0.03 0.02 0.02 0.02 0.01 0.02 0.03 0.04 0.03 0.03 0.02 0.02 0.03 0.05 0.05 0.02 0.00 0.00 0.01 0.01 0.02 0.01 0.01 0.01 0.01 0.02 0.04 0.02 0.01 0.01 0.01 0.00 0.02 0.02 0.02 0.01 0.01 0.01 0.01 0.01 0.01 0.01 0.01 0.01
0.00 0.00 0.00 0.00 0.00 0.00 0.01 0.02 0.03 0.03 0.03 0.02 0.02 0.03 0.01 0.02 0.03 0.03 0.03 0.02 0.02 0.02 0.03 0.05 0.07 0.03 0.02 0.02 0.03 0.03 0.04 0.02 0.01 0.01 0.01 0.03 0.04 0.07 0.05 0.03 0.02 0.01 0.01 0.01 0.01 0.00 0.00 0.00 0.00 0.00 0.00 0.00 0.01 0.00
0.00 0.00 0.00 0.00 0.00 0.02 0.03 0.02 0.03 0.03 0.01 0.01 0.00 0.01 0.01 0.03 0.03 0.03 0.02 0.02 0.04 0.05 0.04 0.04 0.04 0.04 0.03 0.03 0.04 0.09 0.09 0.07 0.04 0.04 0.03 0.02 0.02 0.03 0.04 0.03 0.02 0.02 0.01 0.00 0.01 0.02 0.01 0.00 0.00 0.00 0.00 0.00 0.00 0.00
0.00 0.00 0.00 0.01 0.02 0.03 0.02 0.01 0.01 0.01 0.00 0.00 0.00 0.01 0.02 0.03 0.04 0.03 0.02 0.02 0.03 0.05 0.05 0.05 0.04 0.04 0.03 0.03 0.03 0.03 0.05 0.04 0.02 0.01 0.01 0.00 0.01 0.02 0.03 0.02 0.02 0.01 0.00 0.00 0.00 0.00 0.00 0.00 0.00 0.00 0.00 0.00 0.00 0.00
0.01 0.01 0.02 0.02 0.03 0.02 0.01 0.01 0.01 0.01 0.01 0.01 0.02 0.02 0.03 0.02 0.04 0.04 0.02 0.02 0.04 0.06 0.08 0.10 0.08 0.10 0.08 0.06 0.05 0.04 0.02 0.03 0.03 0.03 0.02 0.01 0.01 0.01 0.01 0.01 0.01 0.01 0.00 0.00 0.00 0.00 0.00 0.00 0.00 0.00 0.00 0.00 0.00 0.00
0.02 0.01 0.02 0.02 0.02 0.03 0.03 0.03 0.02 0.02 0.03 0.03 0.05 0.06 0.06 0.04 0.06 0.05 0.03 0.03 0.05 0.09 0.10 0.11 0.11 0.09 0.11 0.12 0.11 0.09 0.08 0.07 0.07 0.06 0.04 0.02 0.02 0.01 0.02 0.02 0.01 0.00 0.00 0.00 0.00 0.00 0.00 0.00 0.00 0.00 0.00 0.00 0.00 0.00